Lid_Strength_Index
-0 -0 0 3 11 12 15 13 9 10 10 7 6 7 9 8 10 13 2 1 0 0 -0 -1 -2 -2 -1 -1 -1 -1 -1 -1 -1 -1 -1 -1 -1 -1 -1 -1 -1 -2 -2 -2 -2 -2 -2 -2 -2
-0 1 2 6 14 17 15 11 11 9 8 6 6 7 8 9 5 4 3 1 0 -0 -0 -0 -2 -2 -1 -1 -1 -1 -1 -1 -1 -2 -1 -1 -1 -1 -1 -1 -1 -1 -2 -2 -2 -2 -2 -2 -2
0 1 7 10 13 16 15 11 10 8 6 7 8 6 7 8 4 4 1 0 -0 0 -0 -0 -1 -1 -1 -1 -1 -1 -1 -1 -1 -1 -1 -1 -1 -1 -1 -1 -1 -1 -2 -2 -2 -2 -2 -2 -2
2 4 6 13 15 12 11 10 8 8 7 6 6 9 5 3 4 2 1 0 0 0 -0 -1 -1 -1 -1 -1 -1 -1 -1 -1 -1 -1 -2 -1 -1 -2 -1 -1 -1 -1 -1 -1 -1 -2 -2 -2 -2
2 6 12 14 13 10 9 8 7 9 8 7 6 9 8 3 1 1 1 0 1 0 -0 -0 -2 -1 -1 -1 -1 -1 -1 -1 -2 -1 -2 -1 -2 -2 -1 -1 -1 -1 -2 -1 -1 -1 -2 -2 -2
7 7 14 15 12 9 8 7 7 8 7 7 7 8 7 2 2 1 1 1 0 0 -0 -0 -1 -1 -1 -1 -1 -1 -1 -1 -2 -1 -2 -1 -1 -2 -1 -1 -2 -2 -1 -1 -1 -2 -2 -1 -1
8 11 13 13 12 11 9 6 8 8 8 8 6 9 6 4 2 1 1 0 0 -0 -0 0 0 -1 -1 -1 -1 -1 -1 -2 -2 -2 -1 -1 -1 -1 -1 -1 -1 -2 -1 -1 -1 -1 -1 -1 -1
7 9 12 12 12 12 7 7 6 7 8 4 4 9 8 4 2 1 1 1 1 0 0 1 1 1 0 -0 -1 -1 -1 -1 -1 -1 -1 -1 -1 -1 -1 -2 -2 -1 -2 -1 -1 -1 -2 -2 -1
5 12 14 12 11 10 7 8 6 4 6 5 5 5 4 2 2 2 2 2 1 1 1 1 0 1 0 0 -0 -1 -1 -1 -1 -1 -1 -1 -0 -1 -1 -1 -1 -1 -1 -1 -1 -1 -1 -2 -1
8 12 11 8 8 8 7 7 7 7 7 7 6 4 3 3 3 3 3 3 3 2 1 1 0 1 0 -0 0 0 -0 0 0 0 0 -0 0 -0 -1 -1 -1 -1 -1 -1 -1 -1 -1 -1 -0
8 11 8 8 6 6 7 7 6 8 9 7 7 6 4 4 4 4 3 3 3 2 1 1 0 1 0 0 0 0 0 0 0 0 -0 1 0 1 0 -0 -0 -0 -1 -0 -1 -0 0 0 0
10 7 7 7 6 6 7 6 7 7 7 5 5 4 4 4 4 4 3 3 2 2 1 1 0 1 1 0 0 0 0 0 -0 -0 -0 -0 0 0 0 -0 0 -0 1 0 0 0 1 -0 -0
9 8 7 6 6 6 6 7 8 7 5 4 4 4 4 4 4 3 2 2 2 2 2 1 1 1 1 1 0 0 1 0 0 0 0 -0 0 1 -0 0 0 1 2 0 0 0 1 1 -0
7 7 7 6 6 6 8 8 7 7 5 5 5 5 4 4 4 3 3 3 2 2 1 1 1 1 1 1 1 1 1 1 0 0 0 -0 0 0 1 1 1 1 2 0 0 0 1 1 1
6 9 8 7 7 8 7 10 10 6 5 6 6 6 5 5 4 4 3 3 2 2 1 1 1 1 1 1 1 1 1 1 -0 0 0 0 0 0 1 1 1 0 1 0 0 0 1 2 1
9 9 12 8 7 7 8 14 9 6 6 7 6 6 6 5 4 3 3 2 3 3 2 1 0 1 1 2 1 0 0 1 0 0 1 1 0 1 1 1 1 1 -0 0 0 1 1 2 1
10 13 12 10 7 8 9 13 8 6 7 7 7 6 6 6 5 5 3 4 4 3 3 2 1 1 1 2 1 1 1 0 -0 0 0 0 -0 0 1 1 1 0 0 0 0 1 1 1 1
12 13 11 12 9 9 10 11 9 7 7 7 7 6 6 6 6 5 3 3 3 3 3 3 1 1 1 1 1 1 2 1 0 -0 0 0 0 -0 0 1 1 0 1 1 0 1 1 2 1
9 11 11 10 8 10 11 11 10 8 7 8 7 7 6 6 5 4 3 3 3 1 1 2 2 3 1 2 2 2 3 1 1 1 0 0 0 -0 1 1 1 0 1 1 1 1 1 2 1
10 11 12 10 8 10 11 12 9 8 8 7 7 7 6 5 5 4 4 3 3 2 2 2 1 2 2 1 1 1 1 1 1 0 0 1 0 0 1 1 1 1 1 1 1 1 2 2 1
11 12 11 12 10 9 11 13 11 9 7 7 6 6 5 5 5 4 4 3 3 2 2 2 1 1 1 1 1 1 1 1 2 1 1 1 0 0 0 1 2 2 2 1 1 1 1 3 2
12 10 9 11 13 17 11 19 13 11 10 8 7 7 6 5 4 4 5 4 3 3 2 2 1 1 1 1 1 2 2 3 2 2 1 1 1 0 0 0 1 1 2 1 1 0 1 1 3
11 8 9 10 13 14 13 16 14 11 12 10 8 7 6 5 4 5 5 4 3 3 3 2 2 2 1 2 1 2 2 2 2 1 1 1 1 1 1 1 1 1 1 1 1 1 1 1 2
9 10 14 15 13 18 15 15 15 13 11 9 8 7 6 5 4 4 4 4 4 3 3 3 3 3 3 2 2 2 2 2 2 2 3 2 2 2 2 2 0 1 1 1 1 1 1 2 1
12 14 17 17 18 15 15 15 13 10 8 8 8 7 6 5 5 5 5 5 4 4 3 3 3 2 3 2 1 1 1 2 2 2 3 4 4 4 2 1 1 1 0 0 1 1 1 1 1
12 14 16 17 17 17 14 16 13 8 7 7 7 6 6 5 5 4 5 6 5 4 3 2 3 3 2 2 1 1 1 1 1 1 3 4 4 4 3 2 2 1 0 1 0 1 1 2 2
13 13 12 14 14 16 15 13 10 8 9 8 7 7 6 6 5 5 4 3 3 3 3 3 3 3 3 3 2 1 1 1 1 1 2 3 3 2 1 2 2 2 1 0 0 1 2 2 2
11 11 14 15 18 20 17 16 15 11 10 9 8 7 6 5 5 5 4 4 3 3 3 3 3 3 3 2 1 1 1 1 1 1 1 1 2 2 1 1 2 2 2 1 0 1 1 2 2
12 13 15 15 14 18 19 16 10 10 9 9 8 7 6 6 5 5 4 4 4 3 2 2 3 3 3 2 2 1 1 1 1 1 1 1 1 1 1 1 2 3 2 2 2 1 1 2 2
11 12 15 15 15 15 15 14 9 8 8 8 8 7 6 5 5 5 5 5 5 4 3 3 3 3 2 2 1 1 1 1 1 1 1 1 1 1 1 1 2 2 2 2 2 2 1 1 2